Weather History for KCAG - June, 2013

Change the Weather History Date:

Saturday, June 8, 2013

  Actual Average Record
Temperature  
Mean Temperature 63 °F 57 °F  
Max Temperature 81 °F 75 °F 89 °F (2012)
Min Temperature 45 °F 39 °F 27 °F (2007)
Degree Days  
Heating Degree Days 2 8  
Month to date heating degree days 58 71  
Since 1 June heating degree days 58 71  
Since 1 July heating degree days 8557 8530  
Cooling Degree Days 0 0  
Month to date cooling degree days 0 0  
Year to date cooling degree days 0 0  
Since 1 June cooling degree days 0 0  
Growing Degree Days 13 (Base 50)    
Moisture  
Dew Point 37 °F    
Average Humidity 48    
Maximum Humidity 77    
Minimum Humidity 19    
Precipitation  
Precipitation 0.00 in 0.05 in 0.16 in (2014)
Month to date precipitation 0.00 0.40  
Year to date precipitation 5.25 6.59  
Sea Level Pressure  
Sea Level Pressure 29.82 in    
Wind  
Wind Speed 7 mph (West)    
Max Wind Speed 18 mph    
Max Gust Speed 36 mph    
Visibility 10 miles    
Events      
T = Trace of Precipitation, MM = Missing Value Source: NWS Daily Summary

Daily Weather History Graph

Daily Weather History Graph

Search for Another Location

Airport or City:

Trip Planner

Search our weather history database for the weather conditions in past years. The results will help you decide how hot, cold, wet, or windy it might be!

Date:

Astronomy

Jun. 08, 2013 Rise Set
Actual Time 5:39 AM MDT 8:39 PM MDT
Civil Twilight 5:06 AM MDT 9:12 PM MDT
Nautical Twilight 4:24 AM MDT 9:53 PM MDT
Astronomical Twilight 3:36 AM MDT 10:42 PM MDT
Moon 5:49 AM MDT (6/8) 8:43 PM MDT (6/8)
Length of Visible Light 16h 05m
Length of Day
14h 59m
New Moon, 0% of the Moon is Illuminated
Jun 8
New Moon
Jun 16
First Quarter
Jun 23
Full
Jun 29
Last Quarter
Jul 8
New

Hourly Weather History & Observations

Time (MDT) Temp. Dew Point Humidity Pressure Visibility Wind Dir Wind Speed Gust Speed Precip Events Conditions
12:53 AM 52.0 °F 42.1 °F 69% 29.78 in 10.0 mi Calm Calm - N/A   Clear
1:53 AM 50.0 °F 42.1 °F 74% 29.77 in 10.0 mi Calm Calm - N/A   Clear
2:53 AM 51.1 °F 42.1 °F 71% 29.76 in 10.0 mi ENE 3.5 mph - N/A   Clear
3:53 AM 51.1 °F 42.1 °F 71% 29.76 in 10.0 mi ESE 3.5 mph - N/A   Clear
4:53 AM 48.0 °F 41.0 °F 77% 29.79 in 10.0 mi East 3.5 mph - N/A   Clear
5:53 AM 46.0 °F 39.9 °F 79% 29.82 in 10.0 mi Calm Calm - N/A   Clear
6:53 AM 50.0 °F 41.0 °F 71% 29.84 in 10.0 mi ESE 3.5 mph - N/A   Clear
7:53 AM 55.9 °F 43.0 °F 62% 29.84 in 10.0 mi Calm Calm - N/A   Clear
8:53 AM 69.1 °F 37.0 °F 31% 29.82 in 10.0 mi WNW 16.1 mph 20.7 mph N/A   Clear
9:53 AM 71.1 °F 39.9 °F 32% 29.83 in 10.0 mi West 13.8 mph - N/A   Clear
10:53 AM 73.0 °F 39.9 °F 30% 29.85 in 10.0 mi WNW 8.1 mph 17.3 mph N/A   Partly Cloudy
11:53 AM 75.0 °F 39.9 °F 28% 29.86 in 10.0 mi NW 9.2 mph 19.6 mph N/A   Partly Cloudy
12:53 PM 75.9 °F 37.0 °F 24% 29.85 in 10.0 mi WNW 11.5 mph - N/A   Partly Cloudy
1:53 PM 75.9 °F 36.0 °F 23% 29.86 in 10.0 mi NNW 12.7 mph 21.9 mph N/A   Partly Cloudy
2:53 PM 78.1 °F 35.1 °F 21% 29.84 in 10.0 mi WSW 6.9 mph - N/A   Partly Cloudy
3:53 PM 79.0 °F 35.1 °F 20% 29.83 in 10.0 mi Variable 3.5 mph - N/A   Partly Cloudy
4:53 PM 79.0 °F 37.0 °F 22% 29.82 in 10.0 mi Variable 3.5 mph - N/A   Mostly Cloudy
5:53 PM 78.1 °F 39.9 °F 25% 29.82 in 10.0 mi SW 6.9 mph - N/A   Partly Cloudy
6:53 PM 73.9 °F 45.0 °F 35% 29.81 in 10.0 mi SSW 5.8 mph - N/A   Clear
7:53 PM 75.9 °F 30.0 °F 19% 29.80 in 10.0 mi West 10.4 mph - N/A   Clear
8:53 PM 66.9 °F 30.0 °F 25% 29.80 in 10.0 mi West 6.9 mph - N/A   Clear
9:53 PM 59.0 °F 32.0 °F 36% 29.85 in 10.0 mi WSW 6.9 mph - N/A   Clear
10:53 PM 62.1 °F 28.0 °F 28% 29.86 in 10.0 mi WSW 9.2 mph - N/A   Clear
11:53 PM 63.0 °F 27.0 °F 26% 29.88 in 10.0 mi WSW 12.7 mph - N/A   Clear